{"data":{"norad_id":58421,"intl_designator":"2023-180V","name":"STARLINK-30902","alt_names":[],"object_type":"PAYLOAD","status":"ACTIVE","operator":null,"country":"US","launch_date":"2023-11-22","launch_site_code":"AFETR","launch_vehicle":null,"mission":null,"orbit_class":"UNKNOWN","rcs_meters":null,"size_class":null,"mass_kg":null,"dimensions":null,"purposes":["comms"],"wikipedia_slug":null,"has_3d_model":false,"image_url":null,"decayed_at":null,"tle_current":{"epoch":"2026-05-24T21:52:40.560384Z","epoch_age_seconds":83522,"freshness":"FRESH","line1":"1 58421U 23180V   26144.91158056  .00000299  00000+0  20382-4 0  9994","line2":"2 58421  43.0030 342.0425 0001030 279.5073  80.5662 15.27577648139179","mean_motion":15.27577648,"eccentricity":0.000103,"inclination_deg":43.003,"raan_deg":342.0425,"arg_perigee_deg":279.5073,"mean_anomaly_deg":80.5662,"bstar":2.0382e-5,"rev_number":13917,"period_min":94.266893855467,"perigee_km":482.34943588952,"apogee_km":483.76284167611,"semimajor_km":6861.1931387828,"source":"CELESTRAK","updated_at":"2026-05-25T13:38:18.620756Z"}}}